CDT,Max TemperatureF,Mean TemperatureF,Min TemperatureF,Max Dew PointF,MeanDew PointF,Min DewpointF,Max Humidity, Mean Humidity, Min Humidity, Max Sea Level PressureIn, Mean Sea Level PressureIn, Min Sea Level PressureIn, Max VisibilityMiles, Mean VisibilityMiles, Min VisibilityMiles, Max Wind SpeedMPH, Mean Wind SpeedMPH, Max Gust SpeedMPH,PrecipitationIn, CloudCover, Events, WindDirDegrees
2012-10-1,75,63,51,57,53,50,100,74,44,30.02,29.95,29.91,10,10,10,20,6,28,0.00,1,Thunderstorm,340
2012-10-2,71,60,50,50,45,37,88,58,29,30.07,30.00,29.93,10,10,2,13,6,,0.00,1,,325
2012-10-3,80,64,48,54,48,41,82,57,36,29.98,29.94,29.89,10,10,10,18,6,26,0.00,0,,183
2012-10-4,66,60,55,55,48,43,94,66,55,30.22,30.12,29.95,10,10,10,21,11,31,0.00,5,,38
2012-10-5,62,54,46,43,40,34,71,60,42,30.27,30.19,30.14,10,10,10,18,12,25,0.00,4,,39
2012-10-6,48,44,39,34,33,30,75,63,53,30.36,30.29,30.24,10,10,10,16,10,21,0.00,6,,42
2012-10-7,46,40,33,37,33,30,93,79,53,30.36,30.30,30.23,10,10,7,9,1,,0.00,3,Rain,30
2012-10-8,62,47,32,39,35,32,100,65,37,30.23,30.12,30.00,10,10,10,17,6,23,0.00,0,,201
2012-10-9,77,62,46,54,46,41,93,64,34,30.10,29.93,29.85,10,10,10,17,10,24,0.00,0,,193
2012-10-10,64,54,44,45,39,32,81,55,34,30.28,30.18,30.10,10,10,10,16,11,24,0.00,4,,87
2012-10-11,80,68,57,68,58,43,100,77,55,30.13,30.08,30.00,10,9,2,21,9,28,0.00,5,,195
2012-10-12,69,64,59,68,64,57,100,94,83,30.18,30.10,30.03,10,7,0,14,6,,0.11,6,Fog-Rain-Thunderstorm,102
2012-10-13,80,72,62,70,60,36,94,70,23,30.02,29.85,29.69,10,10,10,24,16,32,0.00,4,Rain-Thunderstorm,194
2012-10-14,77,66,53,48,44,41,77,49,29,30.14,30.04,29.83,10,10,10,17,11,25,0.00,0,,319
2012-10-15,84,66,48,50,46,43,87,51,25,30.14,30.02,29.91,10,10,4,16,5,23,0.00,0,,209
2012-10-16,80,70,59,59,53,46,78,56,39,29.90,29.71,29.54,10,10,10,18,11,26,0.00,0,,186
2012-10-17,75,62,50,59,44,30,88,50,23,29.90,29.65,29.42,10,10,10,25,13,34,0.00,0,,321
2012-10-18,69,55,41,32,29,27,70,41,21,30.06,29.98,29.89,10,10,7,25,6,31,0.00,0,,307
2012-10-19,77,60,44,36,27,21,46,30,17,30.03,29.96,29.85,10,10,5,21,10,29,0.00,0,,285
2012-10-20,78,66,55,59,46,36,88,51,42,29.85,29.77,29.70,10,10,10,14,8,20,0.00,0,,187
2012-10-21,91,76,62,64,61,54,94,65,31,29.76,29.71,29.67,10,10,10,24,12,32,0.00,0,,187
2012-10-22,80,73,66,64,61,55,88,68,42,29.92,29.84,29.77,10,10,10,24,14,31,0.00,1,Rain,193
2012-10-23,87,76,64,68,64,61,94,71,40,29.86,29.82,29.76,10,10,10,24,15,33,0.00,0,,193
2012-10-24,78,72,66,66,65,61,94,78,61,29.86,29.80,29.71,10,10,10,25,16,34,0.00,2,,184
2012-10-25,69,56,41,61,44,34,83,66,47,30.25,29.99,29.69,10,10,10,28,18,37,0.00,2,,1
2012-10-26,50,42,33,34,29,25,87,66,40,30.46,30.37,30.25,10,10,10,21,13,29,0.00,2,,12
2012-10-27,51,38,24,30,27,23,93,66,38,30.40,30.30,30.20,10,10,10,7,3,,0.00,0,,7
2012-10-28,60,45,30,32,30,25,87,61,34,30.30,30.24,30.18,10,10,10,9,2,,0.00,0,,174
2012-10-29,66,50,33,34,32,30,87,52,30,30.27,30.19,30.09,10,10,10,16,6,22,0.00,0,,190
2012-10-30,80,60,39,43,37,32,75,44,24,30.09,29.99,29.88,10,10,10,15,6,21,0.00,0,,229
2012-10-31,75,57,39,43,41,36,87,58,31,30.10,30.03,29.98,10,10,7,8,5,,0.00,0,,314